sat.trackr.live / text

‹ back to catalog

AVION KALUGA 650

NORAD 57195 · 2023-091AF

PAYLOAD ACTIVE UNKNOWN

§ Identity

Operator
Country
CIS
Launch date
2023-06-27
Launch site
VOSTO
Launch vehicle
Mass (kg)
RCS (m²)

External: N2YO · Heavens-Above · Gunter

§ Orbital elements

Epoch: 2026-05-25T04:34:02.102304Z

Period
94.73 min
Inclination
97.5104°
Eccentricity
0.0010465
Mean motion
15.20064604 rev/d
Perigee alt
498.4 km
Apogee alt
512.8 km
Semi-major
6,883.8 km
B*
2.5660e-4
RAAN
204.8629°
Arg perigee
181.7949°
Mean anomaly
178.3250°
Rev number
16,053

§ Raw data

AVION KALUGA 6501 57195U 23091AF  26145.19030211  .00005475  00000+0  25660-3 0  99992 57195  97.5104 204.8629 0010465 181.7949 178.3250 15.20064604160530

JSON: /api/v1/satellites/57195 · /tle

For live sub-satellite position, see the globe view (requires WebGL).

§ Visibility from observer

Set your observer location to see the next 7 days of passes ≥ 10°. The values pass through the URL so the page stays shareable.

No JS? Fill the form by hand. The geolocation button needs JavaScript.

§ Radio — SatNOGS DB

ModeDescriptionDownlinkUplink
AFSK Mode U - AFSK 1k2 435.715 MHz
AFSK Mode U - AFSk 1k2 435.615 MHz
DOKA Mode U - DOKA 9k6 435.615 MHz
DOKA Mode U - DOKA 9k6 435.715 MHz
GFSK Mode U - Transmitter 435.140 MHz

5 transmitters · refreshed weekly from db.satnogs.org